Regional Weather Roundup
Issued by NWS

Home | Current Version | Previous Version | Text Only | Print | Product List | Glossary On
Versions: 1 2 3 4 5 6 7 8 9 10 11 12 13 14 15 16 17 18 19 20 21 22 23 24 25 26 27 28 29 30 31 32 33 34 35 36 37 38 39 40 41 42 43 44 45 46 47 48 49 50
000
ASUS43 KMPX 042010
RWRMN
WEATHER ROUNDUP FOR MINNESOTA
NATIONAL WEATHER SERVICE TWIN CITIES/CHANHASSEN MN
300 PM CDT TUE AUG 04 2015


NOTE: "FAIR" INDICATES FEW OR NO CLOUDS BELOW 12,000 FEET WITH NO
SIGNIFICANT WEATHER AND/OR OBSTRUCTIONS TO VISIBILITY. N/A MEANS
CURRENT SKY AND/OR WEATHER CONDITIONS ARE NOT AVAILABLE.

MNZ060>063-068>070-042100-
   Twin Cities Metro

CITY           SKY/WX    TMP DP  RH WIND       PRES   REMARKS
TWIN CITIES    MOSUNNY   80  51  36 NW8       29.97F
ST PAUL        MOSUNNY   81  50  33 W9G18     29.97F
CRYSTAL        MOSUNNY   81  51  35 NW9G17    29.96F
BLAINE         MOSUNNY   81  52  36 NW9       29.97F
LAKEVILLE      SUNNY     77  54  44 W3        29.99S
EDEN PRAIRIE   MOSUNNY   82  52  35 W9        29.98S
SOUTH ST PAUL  SUNNY     80  47  31 W12G17    29.97S
LAKE ELMO      FAIR      77  54  44 NW8       29.98F
$$
MNZ001>005-007-008-013>017-022>024-027-028-042100-
   Northwest Minnesota

CITY           SKY/WX    TMP DP  RH WIND       PRES   REMARKS
BEMIDJI        MOSUNNY   71  52  51 N9        30.01S
HALLOCK        SUNNY     73  50  43 NE5       30.02F
ROSEAU         SUNNY     70  55  60 CALM      30.03S
WARROAD        SUNNY     64  55  72 E8        30.05S
THIEF RVR FALL SUNNY     72  50  46 NW9       30.02F
CROOKSTON      SUNNY     75  54  46 N6        30.02S
FOSSTON        SUNNY     75  52  43 CALM      30.02F
DETROIT LAKES  SUNNY     75  50  41 N8        30.02S
MOORHEAD       SUNNY     77  54  44 NE9       30.00S
PARK RAPIDS    SUNNY     78  50  37 NW16      29.99F
MAHNOMEN       FAIR      73  54  51 N13G23    30.01F
$$
MNZ006-009>011-018-025>026-042100-
   North Central Minnesota

CITY           SKY/WX    TMP DP  RH WIND       PRES   REMARKS
BAUDETTE       MOSUNNY   67  51  56 NE9       30.03S
FLAG ISLAND    SUNNY     63  48  59 N7        30.03S
INTL FALLS     CLOUDY    65  49  56 N7        30.03S
WASKISH        SUNNY     72  54  53 NW6       30.02S
BIG FORK       SUNNY     70  50  49 NW5       30.02R
LONGVILLE      SUNNY     73  54  49 W10       30.00F
GRAND RAPIDS   PTSUNNY   70  48  46 W8        30.01S
CRANE LAKE     CLOUDY    61  50  67 W2        30.04S
ORR            MOSUNNY   66  46  48 CALM      30.00S
COOK           MOSUNNY   64  52  63 NW7       30.02R
WALKER         FAIR      74  51  45 W12       30.00F
$$
MNZ012-019>021-037-042100-
   Northeast Minnesota

CITY           SKY/WX    TMP DP  RH WIND       PRES   REMARKS
DULUTH         MOSUNNY   74  51  44 VRB7      29.99R
ELY            CLOUDY    63  48  59 N5        30.02R
HIBBING        PTSUNNY   69  49  48 NW10      30.00S
EVELETH        MOSUNNY   66  50  55 W3        30.02R
DULUTH HARBOR  PTSUNNY   66  52  59 N5        29.97S
TWO HARBORS    MOSUNNY   73  55  53 CALM      29.97R
SILVER BAY     PTSUNNY   70  48  46 NW5       29.97S
GRAND MARAIS     N/A     53  48  83 SW8       29.98S
G MARAIS ARPRT CLOUDY    61  46  59 NW7       30.01S
$$
MNZ029>031-032-039>041-046>048-054>057-064-042100-
   West Central Minnesota

CITY           SKY/WX    TMP DP  RH WIND       PRES   REMARKS
FERGUS FALLS   SUNNY     79  52  38 NW9       29.98F
WHEATON        SUNNY     77  52  41 N5        30.01R
MORRIS         SUNNY     81  50  34 N5        29.99S
ALEXANDRIA     MOSUNNY   79  49  34 NW7       30.01F
ELBOW LAKE     FAIR      77  50  39 N5        30.00R
WADENA         SUNNY     79  48  34 N9G17     29.99S
GLENWOOD       SUNNY     79  48  34 N5        30.01F
APPLETON       SUNNY     81  46  30 SW5       29.99S
BENSON         SUNNY     81  45  28 CALM      29.99S
ORTONVILLE     SUNNY     81  46  30 CALM      30.00R
MADISON        MOSUNNY   79  48  34 E3        30.00S
WILLMAR        FAIR      79  46  31 CALM      30.01S
$$
MNZ033>034-036-042>043-049>051-058-059-042100-
   Central Minnesota

CITY           SKY/WX    TMP DP  RH WIND       PRES   REMARKS
ST CLOUD       MOSUNNY   80  49  33 W10       29.98S
SAUK CENTRE    FAIR      77  50  37 W8        30.00R
PAYNESVILLE    SUNNY     76  46  33 CALM      30.00S
AITKIN         SUNNY     75  54  46 NW5G17    29.98S
PINE RIVER     MOSUNNY   75  54  46 MISG      30.02F
BRAINERD       MOSUNNY   77  51  40 N10       29.98F
STAPLES        SUNNY     79  46  31 W12       29.99S
LONG PRAIRIE   FAIR      77  50  38 W6G16     30.00S
LITCHFIELD     SUNNY     79  45  29 NW5       30.00S
BUFFALO        MOSUNNY   79  49  34 W7        29.99F
MAPLE LAKE     SUNNY     79  54  41 CALM      29.99F
$$
MNZ037-044-045-052-053-042100-
   East Central Minnesota

CITY           SKY/WX    TMP DP  RH WIND       PRES   REMARKS
PRINCETON      MOSUNNY   81  52  36 NW10      29.98S
MORA           MOSUNNY   75  52  43 NW10      29.99S
CAMBRIDGE      MOSUNNY   81  57  44 NW8       29.95F
RUSH CITY      MOSUNNY   77  53  42 NW7       29.97F
MOOSE LAKE     MOSUNNY   73  48  40 NW12      29.96F
HINCKLEY       MOCLDY    77  55  47 NW6       29.97F
CLOQUET        MOSUNNY   73  48  40 NW12      29.98S
MCGREGOR       MOSUNNY   73  50  43 N12       29.99S
$$
MNZ071>073-080-081-089-090-097-098-042100-
   Southwest Minnesota

CITY           SKY/WX    TMP DP  RH WIND       PRES   REMARKS
MONTEVIDEO     MOSUNNY   82  54  36 NE5       30.02R
GRANITE FALLS  MOSUNNY   79  52  39 S5        30.01S
CANBY          PTSUNNY   79  51  37 NE7       30.01S
MARSHALL       PTSUNNY   79  54  41 SW6       30.02S
REDWOOD FALLS  MOSUNNY   80  46  30 S3        29.99S
OLIVIA         SUNNY     75  48  38 CALM      30.00R
PIPESTONE      PTSUNNY   77  59  53 SE3       30.02R
WINDOM         PTSUNNY   79  48  34 CALM      30.02R
WORTHINGTON    PTSUNNY   73  57  56 SE7       30.01F
JACKSON        PTSUNNY   77  54  44 SE6       30.02S
TRACY          MOSUNNY   79  54  41 SE5       30.02R
SLAYTON        PTSUNNY   76  55  48 CALM      30.03S
$$
MNZ065>067-074>077-082>085-091>093-042100-
   South Central Minnesota

CITY           SKY/WX    TMP DP  RH WIND       PRES   REMARKS
MANKATO        MOSUNNY   75  50  41 S5        30.01S
NEW ULM        MOSUNNY   77  43  29 NW6       30.00S
ST JAMES       MOSUNNY   77  54  44 SE3       30.01S
FAIRMONT       PTSUNNY   77  46  33 SE8       30.00F
GLENCOE        SUNNY     80  53  38 NW6       29.99S
FARIBAULT      MOSUNNY   77  54  44 CALM      30.01S
OWATONNA       MOSUNNY   77  48  36 W5        30.01S
WASECA         MOSUNNY   77  52  41 SW5       30.03S
ALBERT LEA     PTSUNNY   75  48  38 W3        30.01F
$$
MNZ078>079-086>088-094>096-042100-
   Southeast Minnesota

CITY           SKY/WX    TMP DP  RH WIND       PRES   REMARKS
ROCHESTER      MOSUNNY   77  57  50 VRB5      30.02F
RED WING       MOSUNNY   81  46  30 CALM      29.97S
STANTON        SUNNY     78  50  38 NW3       29.98F
DODGE CENTER   MOSUNNY   75  48  38 NW5       30.02S
WINONA         MOSUNNY   79  54  41 NW8       29.99S
AUSTIN         PTSUNNY   79  46  31 CALM      30.01F
PRESTON        MOSUNNY   74  55  51 CALM      30.03S
$$
ABBREVIATIONS USED IN REMARKS
   TC - TEMPERATURES IN CELSIUS
  WCI - WIND CHILL INDEX
   HX - HEAT INDEX
  VSB - VISIBILITY
$$



USA.gov is the U.S. government's official web portal to all federal, state and local government web resources and services.